Regional Weather Roundup
Issued by NWS

Home | Current Version | Previous Version | Graphics & Text | Print | Product List | Glossary On
Versions: 1 2 3 4 5 6 7 8 9 10 11 12 13 14 15 16 17 18 19 20 21 22 23 24 25 26 27 28 29 30 31 32 33 34 35 36 37 38 39 40 41 42 43 44 45 46 47 48 49 50
000
ASUS45 KCYS 281310
RWRWY

WYOMING REGIONAL WEATHER ROUNDUP
NATIONAL WEATHER SERVICE CHEYENNE WY
700 AM MDT MON JUL 28 2014

NOTE:  "FAIR" INDICATES FEW OR NO CLOUDS BELOW 12,000 FEET
WITH NO SIGNIFICANT WEATHER AND/OR OBSTRUCTIONS TO VISIBILITY.

WYZ001-281400-
YELLOWSTONE NATIONAL PARK

CITY           SKY/WX    TMP DP  RH WIND       PRES   REMARKS
LK YELLOWSTONE   N/A     43  35  73 CALM      30.53R
W YELLOWSTONE  NOT AVBL

$$
WYZ002>013-054>058-071-098>099-281400-
NORTHERN WYOMING

CITY           SKY/WX    TMP DP  RH WIND       PRES   REMARKS
JACKSON        CLEAR     45  36  70 CALM      30.43R
CODY           NOT AVBL
GREYBULL       CLEAR     58  43  57 CALM      30.27R
WORLAND        CLEAR     61  35  37 SW3       30.27R
SHERIDAN       SUNNY     54  46  74 CALM      30.30R
BUFFALO        SUNNY     59  44  57 SE8       30.36S
GILLETTE       SUNNY     61  49  64 SE13      30.35R
HULETT         FAIR      55  50  82 MISG      30.37
NEWCASTLE      FAIR      59  45  58 MISG      30.36

$$
WYZ014>020-022>026-101>103-281400-
CENTRAL WYOMING

CITY           SKY/WX    TMP DP  RH WIND       PRES   REMARKS
BIG PINEY      MOCLDY    51  31  46 CALM      30.46R
PINEDALE       PTSUNNY   48  36  61 NW6       30.47S
DUBOIS         FAIR      46  28  49 NW10      30.49R
LANDER         CLEAR     64  37  36 SW3       30.35R
RIVERTON       CLEAR     60  44  55 NW7       30.35R
CASPER         SUNNY     58  42  55 CALM      30.36R
DOUGLAS        SUNNY     60  47  61 E5        30.36R

$$
WYZ021-027>030-104>119-281400-
SOUTHERN WYOMING

CITY           SKY/WX    TMP DP  RH WIND       PRES   REMARKS
EVANSTON       CLOUDY    63  28  26 E8        30.42R
KEMMERER       MOSUNNY   63  39  42 N13       30.43S
FORT BRIDGER   FAIR      56  28  33 W6        30.44R
ROCK SPRINGS   PTCLDY    61  48  62 E8        30.40R
DIXON          FAIR      56  44  64 CALM      30.43R
RAWLINS        CLEAR     57  50  77 NE5       30.43S
SARATOGA       FAIR      50  45  81 CALM      30.45S
LARAMIE        SUNNY     52  51  97 S3        30.46R FOG
CHEYENNE       SUNNY     58  55  90 W7        30.40S FOG
TORRINGTON     SUNNY     60  49  66 E9        30.32R
PINE BLUFFS    FAIR      55  48  76 CALM      30.36S

$$



USA.gov is the U.S. government's official web portal to all federal, state and local government web resources and services.